Terug naar catalogus

NOAA 16 DEB

ActiefPO
NORAD 41068·DEBRIS·🇺🇸 United States

Gelanceerd Sep 21, 2000 vanaf Vandenberg Space Force Base

Loading…

Volgende Passages (komende 24 uur)

TLE

VersSource: Space-Track

Epoch: Sep 14, 2026, 04:16 UTC

1 41068U 00055AB  26257.17805303  .00000980  00000-0  27620-3 0  9995
2 41068  99.1785 243.5909 0138484 223.3071 135.7166 14.42975345564972

Volg NOAA 16 DEB in realtime met AllMySat

Download on the App Store